Dewpoint
61 52 51 52 54 52 46 44 29 37 38 33 31 32 28 29 31 29 27 36 43 44 51 54 54 51 55 54 55 58 59 55 57 46 47 59 66 67 68 67 71 71 71 71 72 73 73 74 73 73 73 73 73 73 73 73 73 73 73 72 72 72 72 72 72 72 72 72 72 71 72 71 72 71 72 72 72 71 71 71 71 71 70 70 70 69 68 68 68 68 68 68 68 67 66 68 68
52 49 46 46 49 47 43 44 37 32 32 28 28 30 29 30 30 28 28 38 41 49 54 55 57 58 58 58 58 57 57 60 61 60 62 65 67 68 68 69 71 70 71 71 72 72 72 73 74 73 73 73 73 73 73 73 73 73 72 72 72 72 72 72 71 72 71 71 71 71 71 71 72 72 72 72 71 71 71 70 70 70 69 69 69 69 68 68 68 68 67 67 67 68 68 67 68
54 48 42 46 49 47 44 36 34 29 28 25 26 27 28 27 27 28 29 44 48 51 54 55 55 55 55 55 53 54 54 61 61 62 63 65 64 65 68 69 70 71 70 71 71 72 72 73 74 73 73 73 72 73 73 73 73 72 72 72 72 72 72 72 72 72 71 71 71 71 71 71 71 71 72 72 71 71 71 70 70 70 70 69 69 69 68 68 68 68 68 68 68 68 68 68 68
53 51 44 45 42 40 36 30 31 28 27 26 27 27 28 28 27 30 35 44 48 50 51 52 55 59 54 54 56 58 58 60 63 63 62 64 64 66 68 69 71 70 70 70 71 72 72 73 73 73 73 72 72 72 73 73 73 73 72 72 72 72 72 72 72 71 71 71 71 71 71 71 71 71 71 72 72 71 70 70 70 70 69 69 69 69 68 67 68 68 67 67 67 68 68 68 68
45 51 45 42 40 40 35 31 27 26 22 25 25 26 30 29 29 39 44 47 52 51 52 54 56 59 60 59 60 57 57 62 62 65 64 66 68 68 68 70 70 69 68 70 71 72 72 73 73 73 72 72 72 72 72 72 72 72 72 72 72 72 71 72 72 71 71 71 71 71 71 71 71 71 71 72 71 71 70 70 69 69 69 69 69 69 67 66 67 67 67 67 67 68 68 67 67
41 41 47 39 39 39 31 31 30 22 22 24 23 24 24 27 34 48 50 52 54 55 55 55 54 56 57 59 61 59 62 58 63 65 65 65 67 68 70 70 68 67 68 70 71 72 72 73 73 73 72 72 72 72 72 72 72 72 72 72 72 72 72 72 72 71 71 71 71 71 71 71 72 71 71 71 71 71 70 69 70 69 69 69 69 68 67 66 66 66 67 67 67 67 67 66 66
36 36 37 37 36 32 31 29 28 27 27 25 25 23 23 23 37 51 49 49 52 55 55 54 56 57 57 60 61 64 66 66 64 65 68 67 68 68 69 69 67 67 69 70 71 72 72 73 73 73 73 72 72 72 72 72 72 72 72 72 72 72 72 71 71 71 71 71 71 71 71 71 71 71 71 70 71 70 70 70 69 69 69 69 69 68 67 66 66 66 67 67 66 66 65 65 66
42 34 36 33 33 27 26 28 25 26 27 28 28 26 26 28 32 45 44 46 49 51 55 57 57 56 57 60 57 64 66 66 67 67 67 67 68 68 69 67 67 68 69 70 71 72 73 73 73 73 72 72 72 72 72 72 72 72 72 72 72 72 71 71 71 71 71 71 71 71 71 70 70 70 70 70 70 70 70 70 69 69 69 69 68 68 67 66 66 67 66 66 66 65 65 65 65
36 34 39 30 31 30 25 22 22 24 25 26 26 30 43 33 47 51 51 51 54 53 54 54 51 50 56 59 59 63 65 66 66 68 67 67 67 68 68 67 67 68 70 71 71 71 72 73 73 73 72 72 72 72 72 72 72 72 72 72 71 71 71 71 71 71 71 71 70 70 70 70 70 70 70 70 70 70 70 70 69 70 69 68 68 67 66 66 66 66 66 66 65 65 66 66 65
33 33 31 31 30 32 26 24 22 22 22 23 23 24 26 34 51 53 54 54 53 55 55 56 55 53 58 57 60 61 63 65 66 67 68 68 68 68 68 68 68 69 70 71 71 72 71 73 73 72 73 72 72 72 72 72 72 72 72 71 71 71 71 71 71 71 70 70 70 70 70 70 70 70 70 70 70 70 70 70 70 70 69 69 68 67 67 66 66 66 66 66 66 66 66 65 64
31 30 33 28 29 26 28 27 27 27 26 25 23 22 24 48 51 52 52 53 54 52 55 54 55 56 57 58 59 63 65 66 66 66 68 68 69 69 69 69 69 70 70 71 71 71 71 72 73 72 72 72 72 73 72 72 72 72 72 71 72 72 71 71 71 71 71 70 70 70 70 70 70 70 70 70 70 70 70 70 70 70 69 68 68 67 67 66 66 66 66 66 66 66 65 64 65
27 28 25 27 27 25 25 27 27 28 28 27 25 30 45 49 51 50 50 50 52 52 54 54 53 57 56 58 59 64 65 66 66 67 68 68 68 69 69 69 70 70 71 71 71 71 72 72 72 72 72 73 73 72 72 72 72 72 72 71 72 71 70 71 71 71 70 70 70 70 70 70 70 70 70 70 70 70 70 70 70 70 69 68 68 68 67 67 66 65 66 66 65 65 64 64 66
26 27 25 23 25 26 27 25 25 30 29 24 23 45 47 47 47 48 48 49 51 50 52 52 55 56 54 57 61 63 64 66 67 67 67 66 66 69 69 69 70 70 71 71 71 71 71 71 71 71 72 72 73 72 72 72 72 72 72 71 71 71 71 71 71 70 70 70 70 69 69 69 70 70 70 70 70 70 70 70 70 69 69 68 68 67 67 66 66 65 65 66 65 64 64 65 66
25 25 26 25 25 23 22 22 22 20 19 30 40 48 49 48 47 47 49 51 52 52 55 57 57 57 57 59 60 61 64 66 67 67 67 67 67 66 67 69 69 70 70 70 71 71 71 71 71 71 71 71 71 72 71 71 71 71 71 71 70 70 71 71 71 70 70 69 69 69 69 70 70 69 70 70 70 70 70 70 70 70 69 68 68 67 67 66 66 66 65 65 64 64 64 66 65
23 26 26 25 21 22 22 22 21 19 36 46 50 51 53 55 52 50 51 52 53 56 56 55 53 48 51 57 57 61 64 66 67 67 66 65 66 66 65 67 69 69 69 69 69 70 70 71 71 71 71 71 71 71 71 71 72 72 72 71 70 70 71 71 71 70 70 69 69 68 68 68 68 68 69 70 70 70 70 70 70 70 69 68 68 67 67 66 66 65 65 65 64 64 65 65 65
23 18 21 25 15 18 18 21 22 26 40 50 51 53 53 56 57 53 53 52 55 60 59 57 60 51 54 55 58 62 66 66 67 66 66 66 66 66 67 67 68 67 67 67 68 68 69 70 70 70 71 71 71 71 71 71 71 72 71 71 71 70 71 71 70 70 70 70 69 68 68 68 68 68 68 68 70 70 70 70 70 70 69 69 68 68 67 67 66 66 65 64 64 65 66 66 67
23 19 18 19 15 17 18 21 22 25 38 46 49 51 52 54 56 57 57 57 57 59 60 61 61 62 60 62 63 64 66 67 66 65 65 66 66 65 66 67 67 67 67 67 68 67 68 68 68 69 70 70 71 71 71 71 71 71 71 71 71 71 70 70 70 70 70 69 68 68 69 67 66 67 68 67 69 70 70 70 70 70 69 69 68 68 68 67 67 66 65 65 65 66 66 67 66
24 21 19 18 15 15 19 19 21 35 44 48 51 52 51 50 53 53 54 55 57 58 59 60 62 63 64 64 65 65 65 65 65 64 64 64 65 64 65 66 67 66 66 66 66 67 67 67 67 68 69 70 70 71 71 71 71 71 70 70 71 70 70 71 70 70 70 69 69 68 67 67 66 66 67 69 68 69 69 70 70 70 69 69 68 68 68 68 67 66 66 66 66 66 67 64 63
20 23 19 14 17 18 20 20 25 36 40 42 48 50 49 50 53 54 52 51 52 55 58 59 60 62 63 64 64 64 64 64 63 63 63 63 64 64 65 66 66 66 66 66 67 67 67 67 67 67 68 69 70 70 71 71 71 70 70 70 71 71 71 71 70 70 68 69 68 68 68 67 66 67 68 69 70 70 69 69 70 70 69 69 68 68 68 68 67 66 66 66 66 66 65 63 63
20 19 19 18 19 18 19 18 18 18 35 38 41 43 49 51 52 53 50 51 52 52 55 57 58 59 61 62 63 63 63 63 63 62 62 62 63 64 65 65 65 65 66 66 66 67 67 67 67 67 67 68 68 68 69 70 69 70 70 70 70 70 70 70 69 69 69 68 69 69 68 67 68 67 69 68 69 68 68 69 69 70 69 69 68 68 68 67 68 67 67 66 69 67 64 64 65
18 17 16 16 17 17 18 18 19 32 40 43 44 45 43 45 52 53 52 51 52 53 54 54 57 60 61 62 62 63 63 63 63 63 62 63 63 64 64 65 65 65 66 67 67 67 67 67 67 68 67 68 67 69 68 68 69 68 69 69 69 69 69 69 68 68 68 69 69 69 69 68 67 66 66 67 67 67 66 67 68 68 67 67 69 66 66 67 67 66 65 67 64 64 64 64 65
18 16 16 16 17 16 17 17 17 17 41 46 45 43 44 51 54 53 51 48 50 54 57 57 59 61 62 62 62 63 63 62 62 62 63 63 63 64 64 65 66 66 66 65 66 66 67 67 67 68 67 68 67 67 67 69 68 68 68 68 68 68 68 68 68 68 68 68 68 68 68 67 66 65 65 66 65 66 66 66 67 66 66 67 69 67 67 66 66 66 65 65 65 64 64 64 64
14 15 15 16 16 15 17 20 20 16 30 44 46 47 49 51 52 50 52 51 54 59 59 59 60 62 62 62 62 62 62 62 62 62 63 63 63 64 64 65 65 65 66 65 66 67 67 67 67 68 68 68 68 68 68 68 67 67 67 68 67 67 67 67 67 67 68 68 68 69 67 66 65 65 65 65 65 65 66 66 66 66 66 67 68 67 67 67 67 66 66 65 64 64 63 63 63
13 13 14 14 15 15 16 17 20 21 39 46 49 50 50 52 54 57 57 59 59 59 60 61 62 63 62 61 61 61 61 61 61 61 62 63 64 64 64 64 65 65 65 65 66 67 67 67 67 67 67 67 67 68 68 68 68 67 67 70 69 70 69 68 67 67 67 67 68 67 69 66 65 64 64 64 64 64 65 66 65 66 66 66 68 67 66 65 67 66 66 66 65 64 63 62 63
13 12 15 15 16 16 14 19 19 25 47 50 51 51 53 55 56 58 58 59 60 60 61 62 62 62 62 61 60 61 61 61 61 62 62 62 63 65 64 64 64 64 64 64 65 66 66 67 67 67 68 67 67 67 67 67 68 67 67 67 67 71 68 67 67 67 67 68 68 68 69 67 66 64 64 63 64 64 64 65 65 65 65 65 66 66 66 65 65 65 65 65 65 64 63 63 64
12 13 17 16 16 14 12 14 17 21 48 53 53 54 56 57 57 57 58 59 60 61 61 62 62 61 61 60 60 60 60 61 61 61 62 62 61 62 63 63 64 64 64 64 65 65 65 67 66 67 67 67 66 67 67 67 66 67 67 68 68 69 67 66 67 67 67 67 67 67 69 67 67 66 66 65 63 63 63 64 65 64 64 64 65 65 66 65 65 65 65 65 64 64 63 63 64
16 13 20 15 13 13 13 15 16 21 52 53 53 54 54 55 54 54 58 60 61 61 61 61 61 60 60 59 59 60 60 60 61 61 62 62 62 62 62 63 63 64 65 64 65 65 66 66 65 66 67 68 66 66 67 67 67 67 68 68 69 68 68 68 67 66 67 67 67 68 68 68 66 66 65 65 64 63 63 63 63 64 63 64 64 64 65 65 65 65 64 65 64 63 63 63 62
17 14 14 10 11 13 14 13 16 17 47 53 53 52 50 54 54 55 57 59 60 60 60 60 60 60 60 59 59 60 60 61 61 61 60 61 61 62 62 62 63 63 64 64 64 65 66 65 65 66 66 68 66 66 67 67 67 67 68 68 68 67 68 66 67 66 68 67 68 68 67 67 68 66 65 65 65 64 64 63 63 64 64 64 65 64 65 66 66 65 66 65 66 63 62 62 62
10 9 7 9 10 9 10 10 13 15 28 52 49 45 50 53 53 56 57 58 59 59 59 59 59 59 60 59 59 59 59 60 61 61 61 62 62 63 62 63 63 63 64 64 65 65 65 65 65 65 66 67 66 66 66 66 66 67 68 67 68 68 67 66 66 66 66 67 67 68 68 68 69 67 66 65 67 65 65 64 64 65 65 65 64 64 67 66 66 66 65 66 65 65 63 62 63
9 9 9 7 8 7 8 12 13 14 26 45 40 37 45 53 54 56 57 57 58 58 58 58 58 59 59 59 58 59 59 60 60 61 61 62 63 63 63 63 64 63 64 65 66 65 65 66 66 66 66 66 66 66 66 65 65 66 68 67 68 67 66 66 67 66 67 66 67 67 68 69 68 69 65 65 65 65 65 65 65 66 65 64 65 66 65 66 65 65 66 66 66 65 63 62 62
5 6 6 10 7 7 9 9 11 10 26 38 42 41 48 54 55 56 56 56 56 57 57 57 58 58 58 58 58 58 59 59 59 61 61 62 62 63 62 63 64 64 66 65 65 65 66 65 66 66 67 66 67 66 67 66 66 68 66 66 66 66 66 66 66 66 66 66 67 67 67 69 69 68 67 65 64 66 65 65 65 66 66 65 66 67 65 67 66 65 65 64 65 65 64 66 64
6 3 4 5 6 5 6 12 10 6 16 38 45 46 49 53 55 56 56 55 55 56 56 56 57 57 57 57 57 58 58 58 60 61 61 61 62 62 62 63 64 64 64 64 65 65 65 65 67 65 66 66 66 66 66 66 66 66 66 69 66 66 66 65 65 67 67 67 67 67 67 69 70 68 69 68 66 67 65 65 65 67 66 66 66 66 66 65 65 64 64 64 65 65 63 63 65
10 4 8 8 6 3 3 5 8 7 12 35 37 44 51 53 55 56 56 54 54 55 55 55 56 56 56 56 57 57 56 57 59 61 61 62 63 63 62 62 62 63 64 64 64 65 65 66 68 66 66 66 66 66 66 66 66 66 65 66 66 66 65 65 66 67 68 68 67 67 67 68 68 68 69 69 68 67 66 65 66 67 67 65 65 66 66 66 65 64 64 66 65 64 63 63 64
15 10 8 10 5 5 3 4 10 7 10 26 48 50 50 52 55 55 55 54 53 54 54 55 56 56 55 56 56 56 56 55 56 59 60 62 62 62 62 64 63 63 64 64 65 65 65 66 67 67 66 66 66 66 65 65 66 66 65 65 67 65 65 66 67 68 68 68 68 67 68 69 68 67 68 69 68 67 67 66 66 65 65 65 65 65 65 64 65 66 65 66 66 65 65 64 63
13 21 14 8 8 6 3 4 8 8 17 40 42 49 50 53 55 55 55 54 53 53 54 54 55 55 55 56 56 56 55 55 54 59 60 61 61 61 62 62 63 63 64 64 65 66 65 66 66 67 67 66 66 66 66 66 65 65 65 64 64 64 65 65 66 67 68 67 67 67 68 69 69 67 68 68 68 67 67 67 67 66 66 65 64 63 64 64 65 65 65 64 66 66 65 64 63
8 8 16 13 13 5 3 5 8 9 12 27 42 46 51 53 54 54 54 54 52 52 53 54 54 54 55 55 55 55 55 55 57 59 60 60 60 61 61 62 63 63 64 65 65 66 66 66 66 66 66 66 66 65 66 65 65 65 63 64 64 65 64 66 65 66 67 67 67 67 68 68 69 67 67 67 68 67 67 66 67 67 66 66 64 63 63 64 65 65 64 64 64 65 65 63 63
8 7 8 6 5 5 8 5 5 14 6 12 38 48 51 52 53 53 53 53 53 53 52 53 53 54 55 55 55 55 55 54 58 59 59 60 60 61 60 61 62 64 64 65 65 66 66 66 65 65 65 66 66 65 64 64 63 63 62 63 62 63 64 64 64 64 65 66 67 67 67 68 68 68 67 67 67 69 66 66 66 66 66 66 64 64 64 64 64 64 65 64 63 62 62 63 63
8 7 6 4 7 4 7 7 7 8 6 12 40 48 50 51 52 52 53 53 52 52 52 52 53 54 54 54 55 55 55 57 58 57 58 59 59 60 60 61 64 63 64 65 65 66 66 66 65 65 65 66 66 65 65 64 63 62 61 62 62 63 64 64 63 64 65 66 66 66 66 67 67 67 68 67 67 68 66 66 65 66 66 66 65 64 63 66 64 63 63 62 63 62 62 64 63
9 6 10 7 6 6 7 10 10 12 12 13 36 44 47 50 50 51 52 52 52 52 52 52 53 53 53 54 55 55 56 57 57 57 58 59 59 60 60 61 62 63 64 65 65 66 66 65 65 65 65 65 65 65 65 64 63 63 63 63 64 63 63 64 64 64 65 66 65 65 66 66 67 67 67 67 66 67 67 66 66 65 65 66 64 63 63 64 64 63 63 62 62 62 63 63 63
11 8 9 7 9 5 7 12 13 13 13 14 14 18 31 45 49 51 51 51 51 52 53 53 53 53 53 53 54 56 56 56 56 57 58 58 59 59 60 61 62 63 64 65 65 65 65 66 65 65 65 65 65 66 66 64 64 63 63 63 63 64 63 65 64 64 65 65 65 66 65 65 65 66 67 67 67 67 67 67 66 65 65 66 64 64 63 63 63 63 63 63 62 61 61 62 63
18 10 11 10 10 14 12 18 14 16 15 15 16 19 20 40 45 48 46 49 51 52 52 52 52 53 53 53 56 56 56 56 56 57 58 58 58 58 59 61 62 62 63 64 64 65 66 65 65 65 65 65 65 66 66 65 65 63 63 64 64 64 64 63 63 62 64 64 66 64 65 66 65 65 66 67 67 67 67 67 67 66 65 65 64 64 64 63 64 64 63 63 62 61 61 61 62
21 15 15 13 22 13 13 14 14 14 15 15 13 14 16 23 42 44 46 49 50 51 50 51 53 53 54 53 55 57 57 57 57 57 58 58 58 58 60 61 61 61 61 63 64 64 65 65 65 65 65 65 65 65 66 65 65 63 62 62 62 61 62 61 62 62 63 64 64 64 65 67 66 65 65 66 67 67 66 67 67 66 65 65 65 64 64 64 63 64 64 63 63 61 61 62 61
15 18 17 15 19 13 12 12 12 13 12 19 16 12 13 22 36 40 45 47 49 50 50 50 51 52 53 54 55 56 56 57 57 58 58 58 59 59 60 60 61 60 61 62 63 63 64 65 65 65 65 65 65 65 65 66 64 63 63 63 62 62 62 62 62 62 63 64 64 64 65 66 66 66 65 65 66 67 66 66 67 67 66 66 66 65 64 64 64 64 65 64 63 63 61 61 61
14 17 19 15 14 13 14 13 14 15 24 17 18 19 13 12 20 37 45 47 48 49 49 50 50 51 51 52 54 56 56 56 57 57 58 58 58 59 59 60 60 60 60 61 61 62 62 63 64 64 64 65 65 65 65 66 65 64 63 63 64 63 62 63 63 64 64 65 64 65 65 66 66 66 65 65 65 66 66 65 66 67 67 66 66 65 65 65 64 64 65 64 64 64 63 61 61
18 18 15 15 15 18 14 13 17 15 13 12 18 25 15 15 24 41 46 46 46 48 48 49 49 50 50 51 54 55 55 56 56 56 57 57 57 58 59 59 60 60 60 60 61 61 61 62 63 63 62 63 64 65 64 65 66 65 64 63 63 64 64 64 64 65 65 65 64 65 65 65 66 66 66 65 65 66 67 66 66 67 67 66 67 66 65 65 64 64 64 64 64 64 63 63 61
21 20 16 20 18 18 17 14 13 19 13 13 17 24 12 16 26 42 44 45 45 46 48 48 49 49 49 51 54 54 55 55 55 56 56 56 58 58 59 59 60 60 60 61 60 61 61 61 62 61 61 61 62 62 64 64 65 65 63 63 63 63 64 64 64 64 64 64 64 64 64 65 65 65 65 66 66 65 66 66 66 67 67 67 67 66 65 65 64 64 64 64 64 64 64 64 63
19 14 13 16 17 20 25 20 19 20 11 16 18 23 19 16 26 42 43 43 45 46 46 47 49 49 49 51 53 54 54 54 55 56 56 57 58 58 59 59 60 60 60 60 60 60 60 60 61 60 61 61 62 62 62 62 62 63 63 63 63 63 63 63 63 62 63 63 64 63 63 65 65 65 65 65 66 66 65 66 66 67 68 68 68 66 65 65 65 64 64 64 64 64 64 64 64
14 13 18 16 18 23 24 24 24 12 14 22 24 29 28 17 22 31 43 42 46 46 46 46 48 48 49 49 51 52 53 53 54 54 54 57 58 58 59 59 59 60 60 59 59 59 59 59 59 57 59 60 61 62 62 61 62 62 62 62 62 62 61 62 62 62 63 63 64 64 64 64 64 65 65 65 65 66 66 65 66 67 68 67 67 67 66 65 65 64 65 65 64 64 64 64 64
14 16 19 15 14 20 16 21 16 14 14 20 23 25 22 22 24 27 29 29 44 47 47 47 47 48 49 49 50 51 52 53 53 53 54 57 58 58 58 59 59 59 59 59 59 59 59 59 58 57 58 59 60 61 60 60 61 61 62 62 62 62 62 63 63 62 61 63 64 63 63 63 64 64 64 65 65 65 66 65 65 66 67 67 67 67 66 66 65 65 65 65 65 64 64 64 64
17 15 20 17 13 15 12 17 17 19 23 28 24 24 21 24 26 29 29 32 44 47 47 47 48 48 48 48 49 50 51 52 52 52 53 56 57 58 58 58 59 59 59 59 59 59 58 58 57 57 58 58 59 59 59 59 59 59 60 62 62 62 62 62 62 62 62 62 63 63 63 64 64 64 64 65 65 66 66 66 66 66 66 67 67 67 67 66 66 66 65 65 65 65 65 64 64
19 18 20 23 20 17 11 14 11 14 19 24 31 21 21 20 26 31 33 33 40 47 47 47 48 48 48 48 49 49 50 51 51 51 52 55 57 58 58 58 58 59 58 58 58 59 58 58 57 58 57 57 58 59 59 58 58 59 60 60 61 61 61 62 61 62 61 61 62 62 63 64 64 64 64 65 65 65 65 66 65 65 66 66 66 66 67 66 67 66 66 66 66 66 65 65 65
28 26 19 18 15 25 15 21 21 22 20 20 22 20 25 23 29 40 39 38 41 47 47 47 47 47 47 48 48 49 50 50 50 51 51 53 56 58 58 58 58 58 58 58 57 58 57 58 57 56 57 57 58 59 58 58 58 60 60 60 61 63 63 61 61 62 62 62 62 62 62 62 63 64 64 64 64 64 65 65 65 65 65 65 65 66 65 65 66 66 66 66 66 66 66 65 65
27 17 19 20 24 28 23 23 28 26 24 20 23 24 24 30 31 34 38 34 37 43 44 45 45 46 47 47 48 48 49 49 50 50 51 52 55 57 57 58 58 58 57 57 57 57 57 57 57 55 56 58 58 59 58 59 59 59 59 59 60 62 62 61 60 60 61 61 61 61 61 62 63 63 63 64 63 63 64 65 64 64 64 64 64 65 65 65 65 65 65 66 66 66 66 65 65
22 18 23 27 27 30 23 17 22 19 16 19 24 21 23 21 21 36 31 34 35 37 41 43 45 46 46 47 47 48 49 49 49 49 51 52 54 56 57 58 57 57 57 57 57 57 57 57 57 56 57 57 57 58 58 58 58 58 58 59 59 59 60 60 59 59 59 61 61 61 61 61 62 63 63 63 63 64 64 66 64 64 63 64 64 64 64 65 65 64 64 65 65 65 65 65 65
20 21 34 18 17 19 27 24 15 14 13 15 21 24 23 24 25 30 27 32 31 34 36 38 43 45 46 46 47 48 48 48 49 49 51 52 53 56 56 57 57 57 58 57 57 57 57 57 57 56 56 57 57 58 58 58 58 58 58 58 58 58 58 58 59 59 59 59 59 59 59 61 60 61 62 62 63 62 63 63 63 63 63 64 64 64 64 64 64 64 64 65 65 65 65 65 65
27 21 22 23 21 24 14 23 24 22 17 15 18 20 19 30 27 31 29 34 35 34 36 34 40 44 46 46 47 47 47 47 48 49 52 53 53 55 56 56 57 57 57 58 57 57 57 57 57 56 56 55 56 57 58 57 57 58 58 57 58 59 60 59 60 60 59 59 59 59 59 60 60 61 61 61 61 62 63 63 63 63 63 63 63 64 64 64 63 63 63 63 64 64 64 64 65
25 20 20 21 24 25 20 26 22 19 17 17 18 17 21 26 35 34 33 33 34 35 34 37 38 41 43 44 46 47 47 46 48 49 51 53 54 55 55 56 57 57 57 57 57 57 57 57 57 56 55 54 55 56 57 57 57 57 58 57 58 58 58 59 59 59 59 59 59 60 59 60 60 60 60 61 60 60 61 62 63 63 63 63 63 63 63 63 63 63 63 63 63 63 64 64 65
26 23 22 21 19 19 20 21 29 26 22 20 19 21 24 29 40 37 32 34 35 37 35 36 36 37 39 42 43 45 47 46 48 50 51 53 54 55 55 56 57 57 57 56 57 56 57 57 56 55 55 55 54 55 55 56 56 56 56 57 57 57 57 57 58 58 58 58 58 59 59 60 60 59 60 60 60 60 61 61 61 63 63 63 63 63 62 62 63 63 63 64 63 63 63 63 64